Temperature
4 5 5 6 6 6 7 9 10 12 13 15 15 15 15 14 13 13 13 13 13 14 14 15 15 15 15 15 15 15 15 15 14 14 13 12 12 11 11 11 10 10 10 10
4 5 6 6 6 7 7 9 10 12 13 14 15 14 14 13 13 12 12 12 13 13 14 15 15 15 15 15 15 15 15 14 14 13 12 12 12 11 10 10 10 10 9 9
4 5 5 6 7 7 8 9 10 10 12 12 13 13 13 13 12 13 12 12 12 13 14 15 15 15 15 15 15 14 14 14 13 12 12 11 11 11 10 10 10 9 9 9
3 4 4 8 8 8 8 8 9 9 10 11 11 12 12 12 12 12 12 12 13 13 14 14 15 15 15 15 14 14 14 13 13 12 12 11 11 10 10 10 9 9 9 8
3 4 5 7 7 7 7 7 7 8 9 10 10 12 12 11 11 12 12 13 13 13 14 14 14 15 15 14 14 14 13 13 12 12 11 11 10 10 10 9 9 8 8 8
2 3 5 6 6 6 7 6 6 6 7 7 9 11 12 10 10 11 12 12 13 13 14 14 14 14 14 14 14 14 14 13 12 12 11 11 10 10 9 9 8 8 8 7
2 3 5 6 6 6 6 5 5 5 6 6 7 8 8 8 9 10 11 12 13 13 14 14 14 14 14 14 14 14 13 13 12 11 10 10 9 9 9 8 8 7 7 7
2 3 4 5 5 5 5 5 5 5 5 5 5 6 7 7 8 9 10 11 12 13 13 14 14 14 14 14 14 13 13 12 11 10 10 9 9 8 8 8 7 7 7 6
3 4 5 5 5 5 5 5 4 4 4 5 5 5 5 6 7 8 9 10 11 12 13 13 14 14 14 14 13 13 12 11 10 10 9 9 8 8 7 7 7 7 6 6
3 4 5 5 4 4 4 4 4 4 4 4 4 5 5 5 6 7 9 9 11 11 12 13 13 13 13 13 13 12 11 10 10 9 8 8 7 7 7 6 6 6 6 5
3 4 4 5 4 4 4 4 4 4 4 4 4 4 5 5 6 7 8 9 10 11 12 12 12 12 13 13 12 11 11 10 9 8 8 7 7 6 6 6 6 6 5 5
3 4 4 4 4 4 4 3 3 3 3 4 4 4 4 5 5 6 7 8 9 10 11 11 12 12 12 12 12 11 10 9 9 8 7 7 6 6 5 5 5 4 4 4
3 3 3 3 3 3 3 3 3 3 3 3 4 4 4 5 5 6 7 8 9 9 10 11 11 11 11 11 11 11 10 9 8 8 7 6 6 6 5 4 4 4 3 3
2 2 2 2 2 3 3 3 2 3 3 3 3 4 4 4 5 5 6 7 8 9 9 10 10 10 10 10 10 10 9 9 8 7 7 6 6 5 5 4 4 3 2 2
2 2 2 2 2 2 2 2 2 2 3 3 3 3 4 4 4 5 6 7 7 8 8 9 9 9 9 9 9 9 9 8 7 7 6 6 5 5 4 4 3 3 2 1
1 1 1 1 2 2 2 2 2 2 2 2 3 3 3 4 4 4 5 6 7 7 8 8 9 9 9 9 9 8 8 7 7 6 5 5 4 4 3 3 2 2 1 1
1 1 1 1 1 1 2 2 2 2 2 2 2 2 3 3 3 3 4 5 6 7 7 8 8 8 8 8 8 8 7 6 6 5 5 4 4 3 3 2 2 1 1 0
0 0 1 1 1 1 2 2 2 2 2 2 2 2 2 3 3 3 4 4 5 6 6 7 7 7 7 7 7 7 6 6 5 4 4 3 3 2 2 1 1 1 -0 -1
-0 -0 0 1 1 1 1 2 2 2 2 2 2 2 2 2 3 4 4 4 5 5 5 5 6 6 6 6 6 6 6 5 4 4 3 3 2 2 1 1 0 -0 -1 -1
-0 -0 -0 0 0 1 1 1 2 2 2 2 2 2 2 2 2 3 3 4 4 5 5 5 5 5 5 5 5 5 5 4 4 3 2 2 1 1 0 -0 -0 -1 -2 -2
-1 -0 -0 0 0 1 1 1 1 1 2 2 2 2 2 2 2 3 3 3 3 4 4 4 4 5 5 5 5 4 4 3 3 2 2 1 1 0 -0 -1 -1 -2 -2 -3
-1 -1 -0 -0 0 1 1 1 1 1 1 1 1 2 2 2 2 2 3 3 3 3 3 3 4 4 4 4 4 3 3 2 2 2 1 1 0 -0 -1 -2 -2 -3 -3 -3
-2 -2 -1 -0 -0 0 1 1 1 1 1 1 1 1 2 2 2 2 2 2 2 3 3 3 3 3 3 3 3 2 2 2 1 1 0 -0 -1 -1 -2 -2 -3 -3 -3 -4
-3 -2 -1 -1 -1 -0 -0 -0 0 0 0 0 0 1 1 1 1 1 2 1 2 2 2 2 2 2 2 2 2 2 1 1 0 0 -0 -1 -1 -2 -2 -3 -3 -4 -4 -4
-3 -2 -2 -1 -1 -1 -1 -1 -1 -0 -1 -1 -1 -0 -0 1 1 1 1 1 1 1 1 1 1 2 2 1 1 1 0 -0 -0 -1 -1 -2 -2 -2 -3 -3 -4 -4 -5 -5
-4 -3 -3 -2 -2 -1 -1 -1 -1 -1 -2 -2 -2 -1 -1 -1 -0 0 -0 -0 -0 0 0 0 0 0 0 0 -0 -0 -1 -1 -1 -2 -2 -2 -3 -3 -4 -4 -4 -5 -5 -5
-4 -4 -4 -3 -3 -3 -2 -2 -2 -2 -2 -2 -2 -2 -2 -1 -1 -1 -1 -1 -1 -1 -1 -1 -1 -1 -1 -1 -1 -1 -1 -2 -2 -2 -3 -3 -4 -4 -4 -4 -5 -5 -6 -6
Wind_Speed
13 14 13 13 15 16 18 18 17 18 17 13 7 5 3 3 4 6 8 9 10 10 10 10 10 10 11 12 12 13 14 14 14 14 14 13 13 13 13 13 12 12 12 11
12 11 12 14 16 18 20 21 21 19 18 11 8 5 2 1 3 5 6 8 9 10 10 11 11 11 11 12 13 14 14 14 13 13 13 13 13 13 13 12 12 12 11 11
8 9 10 11 13 14 15 16 18 19 15 8 9 8 5 3 2 3 4 7 8 9 10 10 11 11 12 13 13 14 14 13 13 13 13 13 12 13 12 12 12 11 11 11
7 8 8 5 4 8 12 12 12 11 9 10 11 11 6 4 4 3 3 5 6 8 8 9 9 10 11 13 14 14 14 13 13 13 13 13 13 13 12 11 11 10 10 10
5 7 9 6 3 5 9 7 6 8 9 10 11 10 10 6 6 6 6 5 6 7 8 9 10 12 13 14 14 14 14 14 14 14 14 14 13 13 11 11 10 9 9 10
7 7 6 3 7 8 7 5 4 5 7 8 8 10 11 8 9 9 7 5 4 5 7 9 11 13 15 15 15 15 15 14 14 14 14 14 13 13 11 10 10 9 9 8
12 9 7 5 8 2 4 3 4 4 6 7 8 10 11 11 11 10 8 6 4 5 7 9 12 14 15 15 15 14 14 14 14 14 14 14 13 12 12 11 11 10 10 8
8 9 8 4 3 0 4 5 5 6 7 9 11 13 13 12 11 10 8 6 4 5 5 7 12 14 15 14 14 14 14 14 14 14 12 12 13 12 12 12 12 11 10 9
7 8 6 5 5 6 6 7 8 9 10 11 12 13 14 13 12 10 9 7 5 5 5 7 11 13 14 14 15 16 16 15 14 14 13 13 14 14 12 11 10 9 9 8
10 12 13 12 10 8 8 9 11 11 12 11 12 13 13 12 11 9 8 6 5 5 7 8 10 12 12 15 17 18 17 16 14 14 13 12 10 10 10 10 10 9 9 8
15 16 14 12 11 11 12 13 14 14 13 12 12 13 13 12 10 8 6 5 5 7 8 9 10 12 14 16 18 18 17 15 14 13 13 12 10 8 8 7 8 10 9 9
14 13 12 15 15 15 16 16 15 15 15 14 12 13 12 11 9 7 6 5 6 7 8 10 11 13 15 17 19 20 17 15 13 12 12 12 12 11 13 11 13 12 11 10
21 20 18 19 20 18 17 17 16 15 14 15 13 11 10 9 7 5 5 6 7 8 9 11 12 14 15 17 18 19 18 16 13 13 13 13 12 13 12 12 15 14 14 13
19 18 20 20 20 18 17 17 16 15 13 12 11 10 8 6 4 4 5 6 6 8 10 12 13 14 15 16 17 18 17 15 14 13 13 12 12 12 11 12 11 9 10 13
19 19 19 19 18 17 16 14 14 13 11 10 8 7 6 4 4 3 4 6 8 9 11 13 14 14 15 16 18 18 16 13 13 12 12 12 12 11 11 11 11 10 9 9
18 18 18 18 18 17 16 14 13 13 10 9 7 6 4 3 3 4 5 7 10 11 12 13 14 15 16 17 18 15 14 17 15 13 12 12 11 11 11 10 10 9 8 8
17 17 16 16 17 17 15 13 12 12 10 8 6 4 3 4 4 5 6 6 8 9 11 13 15 15 15 17 17 14 14 15 17 14 12 11 11 11 10 10 9 8 7 7
18 19 18 17 15 15 14 12 11 10 9 7 5 5 5 6 6 7 8 9 11 11 10 12 14 16 16 16 15 14 14 13 12 12 11 11 11 10 10 9 10 9 8 7
15 16 16 16 16 14 13 11 10 8 7 6 6 6 5 6 7 8 10 11 13 12 10 13 17 16 16 16 16 14 14 14 13 12 11 14 12 10 9 9 9 8 7 6
13 13 14 14 13 12 12 10 8 7 6 7 7 7 7 7 8 10 11 9 7 8 13 15 16 15 15 16 16 14 14 15 14 13 12 11 11 10 9 9 8 8 7 6
11 11 11 11 11 10 10 9 8 7 7 8 9 9 9 9 9 10 11 10 9 12 15 17 13 13 13 15 16 14 14 14 13 12 11 11 10 10 9 9 8 7 6 5
10 10 10 10 9 8 7 7 7 8 8 8 9 10 11 11 10 9 8 8 11 15 13 12 12 15 17 17 13 13 13 13 12 11 11 10 10 9 9 8 7 6 5 4
10 9 9 8 7 6 5 6 7 8 9 10 10 11 12 11 9 11 10 8 11 15 12 11 17 23 22 14 12 13 13 13 12 11 10 10 9 9 8 8 6 6 5 4
9 7 6 5 4 5 6 6 6 7 8 9 8 9 11 11 8 7 9 15 17 17 13 17 23 23 19 12 12 12 11 11 11 10 10 9 8 8 7 7 6 5 4 4
6 5 4 5 6 6 7 8 9 9 10 9 10 9 8 8 10 11 13 15 19 18 14 18 22 20 14 11 11 11 10 10 11 10 9 9 8 7 7 6 5 4 4 3
3 3 3 4 5 6 8 8 8 8 10 10 9 9 9 10 13 13 12 14 17 17 14 12 13 13 11 11 11 11 11 11 11 9 9 8 8 7 6 5 5 4 3 3
1 1 3 4 5 6 7 8 9 9 10 11 12 11 11 12 12 13 14 13 13 12 11 11 10 10 10 11 11 10 10 9 9 8 8 7 6 5 5 5 4 3 3 2
Wind_Direction
277 279 270 259 251 243 232 230 230 234 239 244 248 256 246 215 196 182 179 181 180 175 171 169 168 169 170 170 170 170 172 175 178 178 177 177 176 176 176 177 177 177 177 177
279 274 269 261 250 243 237 234 239 245 243 250 258 265 256 201 178 183 182 178 178 176 173 172 170 168 167 169 169 168 170 172 170 168 168 169 170 169 169 169 169 168 171 171
276 286 285 252 238 232 226 229 231 236 244 262 259 260 259 248 208 195 191 185 184 184 182 178 175 172 170 167 165 166 167 166 165 164 164 164 162 162 163 163 162 165 166 167
277 280 242 246 250 232 226 231 239 250 264 265 259 255 250 254 249 254 232 203 198 191 185 178 172 169 162 159 162 163 162 161 161 161 159 158 159 160 159 158 160 161 162 164
254 264 269 275 280 246 232 238 282 270 275 279 281 260 247 265 290 280 266 234 213 200 184 172 169 164 157 158 160 161 162 162 162 160 157 157 158 158 155 153 153 153 156 158
245 255 253 307 322 297 234 233 334 316 301 297 281 241 245 280 286 286 288 267 225 194 173 169 167 161 159 160 163 166 165 161 159 158 156 156 155 151 147 146 144 141 141 150
239 251 264 316 329 310 196 270 322 306 306 297 261 257 284 296 285 277 275 267 234 198 182 173 166 164 165 165 169 163 156 152 152 153 152 148 144 142 140 137 135 135 132 134
227 238 249 352 359 268 297 316 312 305 304 298 290 290 292 292 288 283 277 263 232 205 186 170 168 168 168 168 159 151 148 147 146 145 141 141 138 137 138 138 136 135 133 128
233 249 286 290 278 274 285 299 309 308 305 303 299 298 298 293 286 277 262 248 226 199 177 173 175 174 168 159 151 148 145 143 141 138 137 140 140 139 140 141 140 141 140 137
261 264 277 286 284 281 291 297 301 302 302 302 298 299 297 291 282 272 257 235 209 183 175 175 175 172 162 152 149 146 144 141 140 137 134 133 133 138 141 145 145 144 145 143
261 270 281 279 280 287 296 299 302 304 300 296 297 296 294 289 278 262 252 229 205 191 180 174 166 161 154 151 148 144 141 139 138 135 132 128 120 119 130 133 145 148 150 148
258 267 272 280 287 291 294 295 298 300 300 298 293 293 292 286 276 256 234 214 199 187 171 163 158 154 153 153 149 143 142 141 139 136 132 128 121 102 79 96 99 101 112 124
259 269 273 278 283 285 286 288 292 291 290 293 295 293 288 282 271 245 222 202 187 174 164 157 153 152 153 153 150 147 145 143 140 139 137 135 132 127 117 95 91 99 109 113
259 264 269 272 276 281 282 284 288 287 287 288 291 291 283 272 254 223 207 188 169 158 154 151 149 150 152 150 145 142 139 137 138 139 139 137 135 132 131 130 124 108 104 111
258 256 261 269 275 278 280 283 284 284 288 290 291 283 268 248 229 209 181 158 149 148 148 148 147 147 148 146 142 139 137 138 135 134 132 132 130 129 128 128 127 126 123 116
262 261 260 262 267 273 278 277 274 277 281 282 285 277 259 226 189 166 161 157 154 153 151 148 146 147 146 142 137 133 131 129 130 132 131 130 130 130 130 131 131 134 135 135
261 259 257 260 263 267 270 269 265 267 268 268 266 246 204 170 154 145 144 143 140 139 143 144 143 141 141 140 134 131 130 130 127 127 130 131 131 131 132 133 134 133 132 138
256 257 258 258 261 265 268 266 258 255 255 250 230 203 187 173 162 148 138 129 121 117 126 134 136 136 135 134 130 129 131 133 132 129 129 129 128 129 129 129 131 130 130 132
261 259 260 259 258 258 262 261 252 245 237 214 197 191 183 169 156 145 139 135 134 131 133 133 131 131 130 129 126 127 129 128 126 125 126 127 125 125 127 129 130 132 135 138
268 264 262 261 258 253 252 248 239 231 215 193 179 170 165 158 149 142 136 130 130 133 135 133 130 127 127 128 124 127 128 128 128 128 128 129 128 128 128 129 131 134 137 140
277 270 265 260 256 251 245 233 220 211 198 184 174 167 156 147 144 140 133 123 117 124 129 128 127 127 127 128 122 126 127 127 129 130 131 130 129 129 130 132 134 136 138 139
281 271 263 256 249 247 237 214 201 188 177 169 160 151 145 141 137 125 113 124 131 129 128 126 125 126 130 125 123 125 126 127 128 129 129 130 132 134 135 136 137 138 139 141
281 271 260 248 236 228 208 190 180 171 164 160 158 155 149 143 141 136 128 127 131 127 125 126 129 128 125 120 122 123 125 126 127 128 128 130 132 134 136 138 139 141 143 146
280 271 258 235 200 182 175 166 153 147 142 142 144 145 141 135 124 114 119 128 130 125 121 126 127 125 119 118 120 122 124 124 124 125 126 127 129 130 133 137 139 142 146 152
279 264 231 193 179 171 157 144 135 132 130 130 129 126 126 126 128 126 125 128 127 121 120 125 124 120 116 117 119 121 123 124 125 126 127 129 131 132 134 137 141 145 151 159
276 249 215 185 166 154 150 147 145 143 138 132 126 122 118 117 118 121 122 123 121 119 119 121 121 116 115 117 118 119 119 122 120 121 126 127 130 131 134 137 140 148 156 166
287 166 145 138 138 142 144 144 143 142 140 136 130 127 125 124 123 123 121 121 119 117 116 116 116 116 116 117 117 116 117 118 119 120 122 124 128 131 136 139 144 151 162 175
Height
1380 1376 1373 1369 1367 1367 1365 1357 1349 1339 1338 1335 1336 1337 1338 1339 1340 1342 1344 1347 1350 1353 1357 1362 1366 1371 1376 1380 1385 1390 1395 1399 1404 1409 1415 1420 1425 1430 1435 1440 1445 1450 1454 1458
1378 1370 1367 1363 1360 1359 1357 1352 1346 1341 1337 1335 1337 1338 1339 1340 1340 1341 1343 1345 1348 1351 1355 1359 1363 1368 1372 1377 1382 1386 1391 1396 1401 1406 1411 1416 1421 1426 1431 1436 1441 1446 1450 1454
1374 1368 1364 1355 1349 1348 1347 1344 1343 1339 1337 1339 1339 1339 1339 1340 1341 1341 1342 1344 1346 1349 1353 1357 1361 1365 1369 1374 1379 1383 1388 1393 1398 1403 1408 1413 1418 1423 1428 1432 1437 1442 1446 1450
1376 1369 1362 1343 1341 1341 1341 1341 1342 1341 1342 1341 1340 1340 1339 1340 1340 1341 1342 1343 1345 1348 1351 1354 1359 1363 1367 1371 1376 1380 1385 1390 1395 1400 1405 1410 1415 1420 1425 1430 1434 1439 1443 1447
1375 1364 1350 1341 1342 1342 1341 1341 1343 1342 1342 1341 1340 1337 1336 1338 1339 1340 1341 1342 1344 1346 1349 1352 1356 1360 1364 1369 1373 1378 1383 1388 1392 1397 1402 1407 1412 1417 1422 1427 1431 1436 1440 1444
1373 1364 1348 1341 1341 1340 1341 1341 1344 1343 1343 1343 1340 1336 1333 1336 1337 1338 1339 1340 1342 1344 1347 1350 1354 1358 1362 1366 1371 1376 1381 1386 1391 1396 1401 1406 1410 1415 1420 1425 1429 1433 1438 1441
1370 1361 1345 1344 1342 1339 1343 1343 1344 1343 1343 1342 1340 1338 1337 1336 1335 1335 1336 1337 1339 1341 1344 1347 1351 1355 1359 1364 1369 1374 1379 1384 1389 1394 1399 1404 1409 1414 1418 1423 1427 1431 1435 1439
1363 1358 1349 1344 1343 1345 1344 1343 1342 1341 1340 1339 1338 1336 1334 1333 1331 1331 1332 1333 1335 1337 1340 1343 1348 1352 1356 1361 1367 1372 1377 1382 1387 1392 1397 1403 1407 1412 1417 1421 1425 1429 1433 1437
1355 1349 1344 1344 1344 1344 1343 1342 1340 1339 1337 1336 1334 1332 1329 1328 1327 1327 1328 1329 1331 1333 1336 1340 1344 1349 1353 1358 1364 1369 1375 1380 1386 1391 1396 1401 1406 1410 1415 1419 1423 1427 1431 1434
1350 1343 1343 1342 1341 1341 1340 1339 1337 1336 1334 1332 1330 1328 1326 1324 1323 1322 1323 1325 1326 1329 1332 1336 1341 1346 1351 1356 1361 1367 1372 1378 1384 1389 1395 1400 1405 1410 1414 1418 1421 1425 1429 1432
1345 1341 1340 1338 1338 1338 1337 1335 1333 1331 1330 1328 1326 1323 1321 1319 1318 1317 1318 1320 1322 1325 1328 1332 1337 1342 1347 1353 1359 1364 1371 1376 1382 1388 1393 1398 1403 1409 1413 1417 1421 1425 1428 1431
1338 1337 1338 1334 1334 1334 1332 1330 1328 1327 1324 1322 1321 1318 1316 1313 1312 1312 1313 1315 1318 1321 1325 1329 1333 1339 1345 1351 1357 1362 1368 1375 1380 1386 1391 1396 1401 1407 1412 1417 1421 1424 1428 1430
1334 1334 1333 1330 1329 1328 1327 1325 1324 1322 1320 1317 1315 1313 1310 1308 1307 1308 1309 1311 1314 1317 1321 1325 1330 1336 1342 1349 1355 1361 1366 1372 1378 1384 1390 1395 1400 1404 1409 1415 1419 1423 1426 1429
1329 1328 1326 1324 1323 1322 1321 1320 1319 1316 1315 1313 1310 1308 1306 1305 1304 1305 1306 1308 1311 1314 1318 1323 1328 1334 1341 1347 1354 1360 1366 1372 1378 1383 1389 1394 1399 1404 1408 1412 1416 1420 1424 1427
1320 1321 1320 1318 1317 1316 1315 1314 1312 1310 1309 1307 1306 1304 1303 1301 1301 1302 1304 1306 1309 1312 1316 1321 1327 1333 1340 1347 1353 1359 1365 1371 1378 1383 1389 1394 1399 1403 1408 1412 1416 1419 1422 1425
1312 1312 1312 1311 1310 1310 1309 1309 1307 1305 1305 1303 1302 1301 1300 1299 1299 1300 1302 1304 1307 1310 1315 1320 1326 1333 1339 1346 1353 1359 1365 1371 1377 1383 1388 1393 1398 1403 1407 1411 1415 1418 1421 1423
1305 1303 1304 1303 1303 1303 1303 1303 1302 1302 1301 1300 1299 1298 1298 1298 1298 1299 1301 1304 1307 1310 1315 1321 1327 1333 1340 1346 1352 1358 1364 1371 1378 1383 1388 1393 1397 1402 1406 1410 1414 1417 1419 1422
1296 1296 1296 1296 1296 1296 1296 1297 1297 1296 1296 1295 1295 1296 1296 1296 1297 1298 1301 1303 1307 1311 1317 1322 1328 1334 1340 1347 1353 1359 1364 1370 1377 1382 1388 1393 1397 1402 1405 1409 1412 1415 1418 1420
1288 1288 1288 1289 1289 1290 1290 1291 1291 1291 1292 1292 1292 1293 1294 1296 1297 1299 1301 1304 1307 1312 1318 1324 1330 1335 1341 1348 1354 1360 1365 1371 1377 1382 1388 1392 1397 1401 1404 1408 1411 1414 1416 1418
1281 1281 1281 1281 1282 1283 1284 1284 1285 1286 1287 1288 1289 1291 1293 1295 1297 1300 1302 1306 1309 1313 1318 1324 1331 1337 1343 1349 1355 1361 1366 1371 1377 1382 1387 1392 1396 1400 1403 1407 1410 1412 1414 1416
1275 1274 1274 1275 1276 1277 1278 1279 1281 1282 1283 1285 1287 1289 1291 1295 1298 1300 1303 1306 1311 1316 1321 1327 1333 1338 1344 1350 1357 1362 1367 1372 1377 1382 1386 1391 1395 1398 1402 1405 1408 1410 1412 1414
1269 1268 1268 1269 1270 1271 1273 1275 1276 1278 1280 1283 1285 1288 1290 1294 1298 1301 1305 1308 1312 1318 1323 1329 1335 1340 1346 1352 1358 1363 1368 1373 1378 1382 1386 1390 1394 1397 1400 1403 1406 1408 1410 1412
1263 1263 1263 1264 1265 1266 1268 1271 1273 1275 1278 1281 1284 1287 1290 1294 1297 1300 1304 1310 1315 1320 1326 1331 1337 1343 1348 1354 1359 1364 1369 1373 1378 1382 1385 1389 1393 1396 1399 1402 1404 1407 1408 1410
1257 1257 1258 1259 1261 1262 1265 1267 1270 1274 1277 1280 1284 1287 1290 1294 1298 1303 1306 1312 1317 1322 1328 1334 1340 1345 1351 1355 1360 1365 1369 1374 1378 1382 1385 1389 1392 1396 1398 1401 1403 1405 1407 1408
1252 1252 1253 1255 1257 1259 1262 1265 1269 1272 1276 1280 1284 1288 1292 1295 1298 1303 1308 1314 1319 1325 1330 1336 1342 1347 1352 1357 1361 1366 1370 1374 1378 1381 1385 1388 1392 1395 1397 1400 1401 1403 1405 1406
1249 1249 1250 1251 1254 1256 1260 1263 1267 1271 1275 1279 1283 1288 1292 1296 1301 1305 1310 1316 1321 1327 1332 1337 1343 1349 1353 1358 1362 1366 1370 1374 1378 1382 1385 1388 1391 1394 1396 1398 1400 1401 1402 1403
1247 1247 1248 1250 1253 1256 1259 1262 1266 1270 1274 1278 1282 1288 1293 1297 1302 1307 1312 1317 1323 1329 1334 1339 1345 1350 1354 1359 1363 1367 1371 1375 1378 1381 1385 1388 1390 1393 1395 1396 1398 1399 1400 1401